FW6550 Weather Reports


time (UTC)temp
C
wind
direction
speed
KPH
gust
KPH
rain 1hr
cm
rain 24hr
cm
rain mn
cm
humidity
%
barometer
mb
20260503001532 18 0 0.0 3.2 0.00 0.08 0.03 42 1016.8
20260503000040 19 0 0.0 4.8 0.00 0.08 0.03 40 1016.6
20260502234536 20 347 1.6 6.4 0.00 0.08 0.03 38 1016.3
20260502233034 20 321 3.2 12.9 0.00 0.08 0.03 37 1016.3
20260502231537 20 352 1.6 16.1 0.00 0.08 0.03 36 1016.2
20260502230033 20 315 3.2 11.3 0.00 0.08 0.03 36 1016.2
20260502224533 21 325 4.8 16.1 0.00 0.08 0.03 34 1016.2
20260502223033 21 360 3.2 14.5 0.00 0.08 0.03 35 1016.1
20260502221532 21 352 1.6 12.9 0.00 0.08 0.03 35 1016.1
20260502220035 21 325 3.2 14.5 0.00 0.08 0.03 36 1016.0
20260502214534 21 294 3.2 14.5 0.00 0.08 0.03 38 1015.7
20260502213035 21 0 1.6 12.9 0.00 0.08 0.03 37 1015.9
20260502211538 21 328 4.8 14.5 0.00 0.08 0.03 37 1016.0
20260502210033 21 298 4.8 9.7 0.00 0.08 0.03 35 1016.1
20260502204532 21 352 3.2 16.1 0.00 0.08 0.03 34 1016.3
20260502203033 21 46 4.8 19.3 0.00 0.08 0.03 35 1016.3
20260502201531 22 281 4.8 16.1 0.00 0.08 0.03 35 1016.4
20260502200043 22 319 3.2 14.5 0.00 0.08 0.03 35 1016.3
20260502194534 22 286 3.2 14.5 0.00 0.08 0.03 39 1016.3
20260502193033 21 347 3.2 20.9 0.00 0.08 0.03 38 1016.4
20260502191531 21 341 1.6 17.7 0.00 0.08 0.03 37 1016.4
20260502190035 21 101 3.2 16.1 0.00 0.08 0.03 38 1016.5
20260502184537 21 33 3.2 16.1 0.00 0.08 0.03 36 1016.7
20260502183032 21 32 3.2 14.5 0.00 0.08 0.03 38 1016.7
20260502181534 21 315 1.6 12.9 0.00 0.08 0.03 40 1016.8
20260502163036 18 350 4.8 19.3 0.00 0.08 0.03 45 1017.6
20260502161531 18 296 3.2 17.7 0.00 0.08 0.03 44 1017.7
20260502151540 16 341 1.6 12.9 0.00 0.08 0.03 60 1017.6
20260502123044 12 0 0.0 6.4 0.00 0.08 0.03 71 1015.4
20260502121532 12 0 1.6 12.9 0.00 0.08 0.03 70 1015.1
20260502114537 12 0 0.0 8.0 0.00 0.08 0.03 73 1014.9
20260502113039 12 0 0.0 4.8 0.00 0.08 0.03 72 1014.6
20260502111544 12 0 0.0 11.3 0.00 0.08 0.03 71 1014.4
20260502110032 12 0 0.0 3.2 0.00 0.08 0.03 72 1014.4
20260502104531 12 0 0.0 4.8 0.00 0.08 0.03 73 1014.4
20260502103033 12 0 0.0 6.4 0.00 0.08 0.03 74 1014.2
20260502101537 12 311 0.0 6.4 0.00 0.08 0.03 74 1014.0
20260502091532 12 0 1.6 9.7 0.00 0.08 0.03 75 1014.5
20260502070039 13 0 0.0 3.2 0.00 0.05 0.00 39 1014.9
20260502064535 13 0 0.0 3.2 0.00 0.05 0.00 33 1014.6
20260502063039 13 0 0.0 0.0 0.00 0.05 0.00 31 1015.2
20260502061534 13 0 0.0 1.6 0.00 0.05 0.00 30 1015.3
20260502060039 13 0 0.0 0.0 0.00 0.05 0.00 28 1015.4
20260502054536 13 0 0.0 0.0 0.00 0.05 0.00 29 1015.3
20260502053050 13 0 0.0 0.0 0.00 0.05 0.00 28 1015.0
20260502051535 13 0 0.0 0.0 0.00 0.05 0.00 30 1015.0
20260502050035 13 0 0.0 0.0 0.00 0.05 0.00 29 1015.0
20260502044533 13 0 0.0 0.0 0.00 0.05 0.05 30 1014.8
20260502043039 13 0 0.0 0.0 0.00 0.05 0.05 32 1014.5
20260502041538 13 0 0.0 0.0 0.00 0.05 0.05 31 1014.7
20260502040036 13 0 0.0 0.0 0.00 0.05 0.05 32 1014.6
20260502034534 14 0 0.0 0.0 0.00 0.05 0.05 32 1014.5
20260502033032 14 0 0.0 0.0 0.00 0.05 0.05 32 1014.8
20260502031534 14 0 0.0 0.0 0.00 0.05 0.05 34 1014.4
20260502030032 14 0 0.0 0.0 0.00 0.05 0.05 33 1014.3
20260502024533 14 0 0.0 0.0 0.00 0.05 0.05 34 1014.5
20260502023037 14 0 0.0 0.0 0.03 0.05 0.05 36 1014.7
20260502021535 14 0 0.0 1.6 0.03 0.05 0.05 39 1014.8
20260502020039 15 0 0.0 0.0 0.03 0.05 0.05 39 1014.7
20260502014532 15 0 0.0 0.0 0.03 0.05 0.05 43 1015.0
20260502013034 15 0 0.0 0.0 0.03 0.03 0.03 49 1015.2
20260502011532 15 0 0.0 0.0 0.03 0.03 0.03 53 1015.1
20260502010036 15 0 0.0 0.0 0.03 0.03 0.03 58 1015.0
20260502004534 15 0 0.0 0.0 0.03 0.03 0.03 59 1014.8
20260502003032 15 0 0.0 0.0 0.00 0.00 0.00 61 1014.4